RH
91 97 95 92 93 83 43 55 66 43 28 52 60 67 49 42 42 36 42 41 36 42 44 48 48 69 51 34 36 47 41 68 82 53 43 69 84 92 85 91 93 90 91 79
93 96 87 92 83 59 58 86 79 41 41 82 77 58 52 48 50 45 41 43 40 42 49 64 65 56 38 37 40 46 46 78 78 41 81 89 88 89 86 76 78 91 93 88
92 91 87 90 72 55 55 82 88 57 51 64 78 89 70 66 46 49 47 47 42 52 54 47 69 53 42 42 41 34 45 66 64 65 44 54 64 58 51 81 96 90 81 65
84 87 92 97 69 56 48 65 94 96 95 74 93 84 73 70 72 57 54 54 52 61 80 67 64 52 55 47 45 42 58 82 69 65 65 66 62 58 47 60 66 71 48 41
93 88 93 94 76 63 64 83 94 86 94 88 83 86 83 83 74 68 65 67 62 61 79 67 80 68 68 70 53 51 58 80 69 79 56 55 57 50 54 44 42 44 44 43
95 92 91 83 83 78 85 100 96 93 77 87 92 90 87 72 78 64 58 64 70 74 66 58 54 54 61 62 59 69 72 88 88 94 51 56 81 84 75 66 60 62 63 41
99 100 96 93 87 86 89 98 99 89 86 90 84 83 82 81 72 86 64 80 86 64 72 65 62 67 73 80 84 70 89 87 82 97 71 100 90 68 59 66 55 49 47 49
85 83 92 93 89 88 85 83 99 93 84 88 75 89 85 83 73 76 74 68 66 71 74 83 79 60 66 48 44 48 56 92 95 98 90 88 81 77 82 77 72 58 61 59
94 84 92 92 89 89 74 100 99 92 89 94 100 98 85 95 98 87 75 62 61 71 83 91 97 95 87 85 55 41 41 67 88 89 100 86 91 78 59 58 90 57 66 72
96 90 90 92 93 63 72 88 91 88 93 96 79 95 99 95 95 96 86 82 75 71 97 97 96 90 68 97 84 79 67 84 85 76 94 90 75 79 54 80 74 77 80 79
94 97 91 82 76 49 59 74 95 96 87 84 84 82 89 94 93 96 78 82 80 90 95 96 93 83 96 88 92 97 97 99 86 67 85 87 80 74 92 89 91 90 91 93
94 96 52 42 44 52 45 56 93 98 81 84 73 68 74 81 92 97 97 85 88 94 97 94 88 79 71 86 97 79 93 96 97 96 88 90 92 96 95 97 97 95 97 96
96 60 25 32 41 49 47 48 84 80 80 68 71 68 61 75 98 100 94 92 97 94 98 79 94 94 65 92 93 85 77 78 94 94 83 90 94 95 98 98 97 96 97 97
40 22 21 27 40 54 62 38 62 86 81 84 76 70 52 73 88 90 95 86 78 66 50 68 89 80 55 89 87 84 91 85 88 91 81 78 68 96 97 96 96 96 96 97
23 21 22 24 31 54 63 57 61 84 78 73 78 66 49 54 61 62 59 52 52 57 62 82 99 70 76 84 81 90 96 96 96 95 95 97 95 96 97 97 97 97 97 95
23 21 25 24 26 34 45 45 49 68 59 81 94 66 61 42 42 44 46 46 47 53 71 74 57 60 65 95 96 95 99 95 96 96 96 96 96 96 96 97 97 96 96 96
22 24 30 28 28 25 29 41 49 60 74 68 85 77 69 58 43 34 34 36 39 40 47 57 60 75 56 95 97 95 99 87 82 92 95 87 89 99 95 96 96 97 96 96
22 27 30 29 29 32 37 34 28 61 47 51 88 85 84 70 82 68 58 38 40 44 48 52 67 60 71 96 95 93 88 82 70 84 92 97 90 76 87 91 94 94 95 96
25 31 40 30 28 33 49 49 41 27 41 67 78 99 98 74 89 94 84 50 86 54 54 64 60 92 98 96 100 95 90 95 96 81 85 82 98 93 86 90 89 96 96 95
28 45 41 30 38 41 46 34 39 51 62 71 87 81 97 84 89 92 92 68 95 90 86 67 94 98 95 94 91 90 87 79 76 75 77 88 95 100 98 100 96 98 99 100
29 29 24 26 25 29 28 54 68 69 87 93 83 86 92 79 97 98 89 89 86 93 81 83 98 100 95 91 85 84 78 79 79 82 85 90 98 96 97 90 90 88 92 99
27 28 26 26 28 28 48 95 72 88 98 94 94 90 86 86 94 97 78 87 82 89 74 89 100 95 93 90 82 75 78 75 74 76 74 78 81 84 91 92 95 90 93 85
24 24 27 33 54 79 94 99 87 99 94 87 96 95 91 90 95 92 78 87 95 79 97 100 98 94 97 92 84 75 76 77 75 74 73 77 80 77 86 91 97 91 81 97
27 33 75 85 99 100 98 98 95 83 95 96 96 95 99 88 92 89 81 84 82 96 100 100 95 100 100 93 84 83 84 87 83 81 75 75 83 88 86 87 96 92 84 92
43 49 100 98 92 89 90 84 86 85 87 98 96 91 95 83 85 84 86 83 100 97 98 98 85 92 94 85 79 82 87 86 82 82 78 79 85 87 85 88 93 87 84 91
42 66 76 83 79 68 79 81 73 77 90 100 100 94 87 94 96 88 100 97 100 90 94 83 90 85 78 77 78 82 88 87 88 87 84 80 83 87 91 88 89 86 85 89
52 65 71 72 74 75 80 74 69 71 91 97 94 80 93 81 94 94 97 99 93 80 88 85 82 79 77 78 80 84 87 84 86 90 89 80 80 84 83 82 86 88 86 96
Wind_Speed
30 30 31 31 30 31 24 14 4 24 25 16 4 3 5 7 8 6 5 3 5 4 5 4 3 4 7 8 6 3 2 2 3 4 11 14 13 8 6 3 4 2 1 3
29 30 31 29 30 28 23 10 8 15 25 4 5 5 4 5 6 5 3 3 3 4 2 3 3 3 5 10 6 2 4 1 2 2 1 7 7 7 7 5 2 2 0 4
29 28 26 27 28 25 16 6 4 8 12 6 2 4 5 10 14 4 10 3 4 5 4 1 3 5 3 15 4 9 3 0 4 4 4 5 5 7 3 4 1 4 8 14
26 27 21 24 26 25 16 10 3 4 4 7 6 4 7 9 10 6 8 4 8 7 2 4 4 1 5 4 10 3 3 3 2 1 5 4 6 9 9 5 5 5 12 17
26 26 21 24 26 23 16 6 6 8 6 10 7 7 5 8 11 3 5 5 9 4 5 6 7 5 3 4 4 3 2 3 2 3 7 5 10 9 10 12 13 13 18 26
24 24 25 25 23 21 8 9 7 5 7 6 3 5 6 9 11 4 8 8 6 6 5 12 17 17 12 6 1 2 1 2 2 4 2 3 2 13 9 10 8 6 8 15
26 26 24 26 22 18 16 13 5 3 3 3 4 8 9 11 13 5 7 12 2 9 20 16 8 8 6 4 7 5 3 2 3 3 3 4 9 17 10 18 17 5 12 16
24 23 23 22 19 18 16 11 3 2 2 6 6 11 11 10 15 6 5 13 19 14 9 4 5 2 7 9 17 16 10 2 2 1 1 7 9 15 11 10 15 8 16 22
23 22 22 20 17 13 13 11 7 4 1 5 10 5 12 5 4 6 5 14 13 8 2 3 2 4 3 6 7 13 12 8 4 4 1 2 6 19 25 13 9 22 34 27
20 21 20 18 16 15 11 10 9 4 3 17 15 6 6 10 7 3 7 15 10 10 3 2 4 4 4 4 6 10 8 5 7 6 2 3 19 29 26 2 10 45 44 44
18 19 18 16 14 12 12 13 11 7 12 19 17 15 16 17 10 2 10 8 5 5 4 2 3 4 3 3 1 5 5 3 4 5 4 5 34 16 11 15 37 40 44 44
17 16 15 14 13 10 14 17 11 9 17 9 15 20 16 15 17 16 2 2 4 4 2 4 3 4 3 3 3 6 5 5 3 4 3 12 27 19 27 31 34 37 41 51
16 12 13 12 11 7 15 20 9 11 9 18 26 29 26 23 19 8 4 1 5 5 2 4 3 6 3 3 5 4 7 17 3 5 3 21 24 30 33 38 35 37 42 40
16 8 9 10 10 4 7 22 19 5 6 4 12 23 30 24 21 18 11 10 10 14 22 12 3 4 5 2 3 7 9 8 10 4 8 24 22 36 38 41 41 41 44 41
15 6 6 9 9 4 5 11 21 9 3 4 6 19 25 27 25 26 24 22 28 28 19 8 2 6 5 3 3 6 13 5 5 3 21 13 23 35 40 38 41 40 41 44
13 4 4 7 8 7 6 5 11 9 6 2 2 14 23 25 27 31 31 27 26 18 7 6 7 12 5 3 3 11 20 18 15 9 26 14 23 25 34 37 40 38 42 45
10 2 2 6 12 11 13 8 12 7 4 2 3 3 11 13 18 21 23 25 20 16 9 7 7 9 8 2 3 20 22 20 15 21 21 15 28 32 33 34 36 38 40 41
6 2 3 5 7 9 9 13 21 6 6 7 4 5 4 16 8 5 11 10 11 12 6 5 5 6 5 3 13 19 23 21 21 25 21 19 23 27 30 31 33 37 40 39
3 3 2 2 4 4 5 6 9 17 13 6 5 3 3 13 6 4 2 3 4 4 5 4 5 2 4 5 13 17 20 18 23 26 22 26 24 28 29 30 31 32 32 33
3 2 1 3 4 3 2 3 4 8 9 7 5 10 2 9 7 5 5 3 1 2 2 4 3 1 2 10 9 13 17 21 24 30 33 31 27 26 27 26 26 25 25 24
3 2 3 3 5 3 4 5 8 8 5 9 8 8 6 6 3 3 6 1 2 3 3 3 1 1 4 12 13 15 18 19 22 20 20 20 18 22 24 24 24 23 22 22
6 6 6 5 6 6 8 2 5 6 1 9 8 11 9 6 5 3 6 2 4 0 5 3 2 3 10 16 19 21 21 23 25 23 24 21 21 21 19 19 20 21 19 19
5 3 4 7 7 11 6 5 4 4 7 6 18 9 6 4 2 2 4 5 2 3 4 2 3 6 11 17 21 22 20 24 26 26 24 21 21 20 18 18 17 19 18 15
5 6 6 4 4 1 3 3 4 6 7 15 15 5 3 3 4 2 4 3 2 4 3 3 3 12 15 18 21 21 21 25 26 27 26 23 22 20 17 17 16 18 18 16
5 5 3 2 3 1 2 7 7 6 10 11 5 4 3 3 3 3 2 6 2 3 4 3 11 14 17 22 22 21 22 27 26 26 24 22 22 21 19 17 16 16 16 14
5 6 4 3 3 2 3 5 6 7 9 3 1 1 3 2 1 4 2 4 4 3 4 10 13 17 19 20 20 20 23 25 24 25 24 22 20 18 18 16 16 15 16 15
4 3 5 3 0 2 5 7 8 10 4 1 1 3 5 1 3 3 3 4 3 5 10 13 16 17 18 18 19 21 23 24 24 24 24 22 20 17 17 17 18 17 14 12
Wind_Direction
356 355 355 357 357 356 12 3 30 16 19 44 21 39 342 359 354 358 18 43 42 18 12 342 35 71 33 20 5 25 20 86 349 299 335 98 75 34 28 31 9 26 199 231
354 358 357 358 3 4 359 360 334 8 25 42 347 340 347 343 0 349 19 330 23 16 27 0 12 329 24 21 13 352 346 120 4 13 100 52 37 20 23 338 8 68 326 216
354 357 6 5 6 14 14 7 3 344 29 41 18 360 352 354 343 13 359 308 44 5 335 117 289 304 323 337 331 333 78 110 165 193 324 340 313 320 299 133 266 315 257 305
356 356 4 4 6 14 25 18 11 3 332 356 347 4 357 353 5 345 335 344 356 332 274 299 248 271 323 293 309 42 95 188 205 211 250 240 284 297 292 272 238 252 296 288
359 355 4 1 2 9 26 22 1 341 300 329 360 3 339 338 343 274 323 326 311 284 220 230 258 251 198 250 327 68 17 273 64 286 261 256 286 321 310 266 259 255 267 279
359 360 357 356 3 9 15 356 344 343 319 349 31 6 325 332 337 303 327 331 315 308 320 294 274 259 235 229 70 66 240 169 159 270 191 274 13 354 332 338 324 339 274 285
1 1 358 357 1 6 3 359 352 10 319 5 353 343 351 339 344 302 321 356 317 308 317 312 283 263 270 30 342 271 267 158 241 220 175 230 124 28 347 327 288 331 293 304
1 359 356 355 355 355 0 4 21 351 346 337 346 356 359 334 341 332 295 335 325 326 329 16 2 73 106 94 58 38 26 321 282 59 122 127 43 4 334 332 303 45 344 324
360 358 358 358 359 0 4 21 28 29 51 350 349 346 357 343 319 324 296 330 1 1 47 59 41 37 332 29 354 34 15 35 83 7 23 62 11 343 328 299 266 350 332 318
5 360 3 10 15 7 14 28 36 14 43 41 47 23 323 331 316 281 313 339 330 7 31 21 34 60 37 31 16 346 357 5 28 3 339 123 14 351 338 26 322 320 315 307
4 0 6 14 16 27 33 21 22 88 90 48 35 25 6 337 319 286 306 342 351 343 39 73 50 56 48 99 49 354 9 12 1 352 352 351 350 346 1 304 307 308 305 300
2 0 13 24 27 59 34 37 68 88 95 55 39 30 15 351 324 290 270 268 302 304 24 47 72 58 49 22 25 356 32 10 305 11 350 325 332 325 322 322 315 316 317 314
360 7 18 28 32 68 36 39 99 117 79 52 40 25 14 5 354 315 159 19 4 12 142 111 114 75 18 62 25 3 350 4 349 343 329 336 323 341 340 340 332 336 342 342
2 10 18 26 27 58 36 29 36 122 118 87 31 32 28 25 38 69 113 71 59 78 82 63 74 96 55 57 139 56 351 337 318 277 322 333 343 343 343 346 352 356 9 6
1 10 22 26 23 21 16 25 28 47 95 113 53 41 36 49 60 70 78 90 87 79 77 79 83 90 91 60 78 39 0 349 351 303 325 320 321 340 352 352 357 5 10 18
358 17 41 34 33 21 32 22 18 55 126 104 63 48 41 48 61 67 75 80 77 76 70 66 54 52 86 64 45 354 357 2 5 326 337 329 342 353 10 1 4 12 24 27
355 48 97 57 57 67 68 54 8 33 64 68 73 20 13 33 54 61 61 69 66 64 61 50 48 37 69 64 33 336 349 357 11 7 359 347 1 357 8 11 18 22 34 39
2 119 133 87 76 73 66 52 40 49 63 58 66 322 10 12 353 16 33 49 45 36 63 56 43 30 54 59 341 351 359 1 7 9 13 7 5 10 12 18 21 23 24 30
54 104 103 56 40 47 52 49 49 49 55 80 55 356 303 348 346 306 342 60 47 51 45 51 76 5 46 308 337 355 0 359 346 359 6 11 8 5 13 15 19 18 20 23
113 90 53 58 30 33 18 34 31 36 43 54 45 357 305 340 332 335 11 39 135 64 292 105 81 91 200 6 3 0 1 4 3 2 359 358 358 356 3 9 14 18 18 20
87 75 64 64 38 33 47 52 40 12 38 11 359 352 332 353 344 309 15 205 17 64 274 106 18 342 346 6 8 6 5 2 3 0 357 356 355 353 358 4 10 13 17 21
82 99 86 41 31 43 68 2 12 46 16 352 346 332 319 317 321 318 356 100 31 312 336 69 18 261 353 357 357 356 355 355 356 355 353 352 354 354 356 358 360 6 7 13
63 61 61 17 12 40 63 342 324 352 356 347 335 324 325 319 308 325 41 62 243 307 41 192 217 325 347 351 347 344 346 348 348 347 348 348 348 349 351 352 353 353 357 4
56 39 29 72 358 67 174 200 228 291 302 319 328 304 302 321 340 345 69 250 61 45 45 249 252 338 337 341 340 339 340 343 343 343 342 342 344 346 346 347 346 348 352 350
66 43 56 69 114 82 286 321 296 295 305 320 311 287 313 329 38 38 52 23 350 191 225 235 328 331 332 332 334 335 335 337 337 339 339 338 340 339 340 345 342 341 344 343
61 64 76 127 171 359 325 326 333 331 331 336 314 348 42 341 125 48 197 109 226 251 230 314 323 324 325 328 330 332 332 332 332 336 336 333 333 331 332 335 339 342 342 339
68 87 87 110 108 306 333 331 338 342 340 10 34 55 222 293 33 341 183 199 218 283 305 317 320 323 327 329 330 333 332 332 333 332 333 329 326 322 324 330 335 334 334 329